Weather History for KCRP - March, 2013

Change the Weather History Date:

Sunday, March 24, 2013

  Actual Average Record
Temperature  
Mean Temperature 64 °F 68 °F  
Max Temperature 72 °F 78 °F 95 °F (1928)
Min Temperature 56 °F 58 °F 39 °F (1952)
Degree Days  
Heating Degree Days 1 2  
Month to date heating degree days 44 71  
Since 1 July heating degree days 496 871  
Cooling Degree Days 0 4  
Month to date cooling degree days 116 80  
Year to date cooling degree days 260 156  
Growing Degree Days 16 (Base 50)    
Moisture  
Dew Point 45 °F    
Average Humidity 53    
Maximum Humidity 93    
Minimum Humidity 13    
Precipitation  
Precipitation T in 0.07 in 1.03 in (1941)
Month to date precipitation 0.06 1.50  
Year to date precipitation 1.75 4.97  
Snow  
Snow 0.00 in - - ()
Month to date snowfall 0.0  
Since 1 July snowfall 0.0  
Snow Depth 0.00 in    
Sea Level Pressure  
Sea Level Pressure 29.89 in    
Wind  
Wind Speed 19 mph (North)    
Max Wind Speed 36 mph    
Max Gust Speed 43 mph    
Visibility 6 miles    
Events Fog , Rain    
T = Trace of Precipitation, MM = Missing Value Source: NWS Daily Summary

Daily Weather History Graph

Daily Weather History Graph

Search for Another Location

Airport or City:

Trip Planner

Search our weather history database for the weather conditions in past years. The results will help you decide how hot, cold, wet, or windy it might be!

Date:

Astronomy

Mar. 24, 2013 Rise Set
Actual Time 7:29 AM CDT 7:43 PM CDT
Civil Twilight 7:05 AM CDT 8:07 PM CDT
Nautical Twilight 6:38 AM CDT 8:34 PM CDT
Astronomical Twilight 6:10 AM CDT 9:02 PM CDT
Moon 5:23 PM CDT (3/24) 5:27 AM CDT (3/24)
Length of Visible Light 13h 01m
Length of Day
12h 14m
Waxing Gibbous, 92% of the Moon is Illuminated
Mar 24
Waxing Gibbous
Mar 27
Full
Apr 2
Last Quarter
Apr 10
New
Apr 18
First Quarter

Hourly Weather History & Observations

Time (CDT) Temp. Dew Point Humidity Pressure Visibility Wind Dir Wind Speed Gust Speed Precip Events Conditions
12:38 AM 64.4 °F 60.8 °F 88% 29.67 in 7.0 mi South 5.8 mph - N/A Fog Patches of Fog
12:45 AM 64.4 °F 60.8 °F 88% 29.67 in 5.0 mi South 6.9 mph - N/A   Mostly Cloudy
12:51 AM 64.9 °F 61.0 °F 87% 29.67 in 3.0 mi SSW 4.6 mph - N/A   Mostly Cloudy
12:54 AM 64.4 °F 62.6 °F 94% 29.67 in 1.5 mi South 5.8 mph - N/A   Mostly Cloudy
12:57 AM 64.4 °F 62.6 °F 94% 29.67 in 0.2 mi South 6.9 mph - N/A Fog Fog
1:51 AM 66.0 °F 64.0 °F 93% 29.68 in 0.2 mi South 4.6 mph - N/A Fog Fog
2:51 AM 66.0 °F 64.0 °F 93% 29.70 in 0.2 mi West 4.6 mph - N/A Fog Fog
3:51 AM 66.0 °F 64.9 °F 96% 29.70 in 0.2 mi SW 11.5 mph - N/A Fog Fog
4:51 AM 66.0 °F 64.0 °F 93% 29.73 in 0.2 mi West 6.9 mph - N/A Fog Fog
5:06 AM 66.2 °F 64.4 °F 94% 29.75 in 0.5 mi NW 6.9 mph - N/A Fog Fog
5:34 AM 66.2 °F 64.4 °F 94% 29.78 in 1.0 mi North 5.8 mph - N/A   Mist
5:40 AM 66.2 °F 64.4 °F 94% 29.78 in 1.8 mi North 8.1 mph - N/A   Overcast
5:47 AM 66.2 °F 64.4 °F 94% 29.82 in 2.5 mi NNW 20.7 mph 27.6 mph N/A   Mostly Cloudy
5:51 AM 66.9 °F 64.0 °F 90% 29.82 in 3.0 mi North 19.6 mph 27.6 mph N/A   Mostly Cloudy
6:05 AM 66.2 °F 64.4 °F 94% 29.83 in 5.0 mi North 16.1 mph 26.5 mph N/A   Overcast
6:19 AM 68.0 °F 64.4 °F 88% 29.83 in 6.0 mi NNE 16.1 mph - N/A   Overcast
6:40 AM 69.8 °F 64.4 °F 83% 29.85 in 6.0 mi NNE 24.2 mph 35.7 mph 0.00 in Rain Light Rain
6:51 AM 68.0 °F 62.1 °F 81% 29.87 in 6.0 mi NNE 28.8 mph 38.0 mph 0.00 in   Haze
7:20 AM 64.4 °F 53.6 °F 68% 29.92 in 8.0 mi North 29.9 mph 40.3 mph N/A   Overcast
7:51 AM 63.0 °F 51.1 °F 65% 29.95 in 10.0 mi North 27.6 mph 34.5 mph N/A   Overcast
8:51 AM 63.0 °F 46.0 °F 54% 29.99 in 10.0 mi North 27.6 mph 40.3 mph N/A   Mostly Cloudy
9:51 AM 64.0 °F 39.9 °F 41% 30.03 in 10.0 mi North 31.1 mph 38.0 mph N/A   Partly Cloudy
10:51 AM 64.0 °F 32.0 °F 30% 30.06 in 10.0 mi North 29.9 mph 41.4 mph N/A   Partly Cloudy
11:51 AM 66.0 °F 30.9 °F 27% 30.08 in 10.0 mi North 23.0 mph 32.2 mph N/A   Clear
12:51 PM 69.1 °F 25.0 °F 19% 30.08 in 10.0 mi North 23.0 mph 35.7 mph N/A   Clear
1:51 PM 70.0 °F 19.0 °F 14% 30.05 in 10.0 mi NNW 25.3 mph 39.1 mph N/A   Clear
2:51 PM 71.1 °F 18.0 °F 13% 30.03 in 10.0 mi NNW 21.9 mph 33.4 mph N/A   Partly Cloudy
3:51 PM 70.0 °F 17.1 °F 13% 30.01 in 10.0 mi NNW 21.9 mph 25.3 mph N/A   Mostly Cloudy
4:51 PM 70.0 °F 18.0 °F 14% 29.99 in 10.0 mi North 20.7 mph - N/A   Mostly Cloudy
5:51 PM 70.0 °F 17.1 °F 13% 29.98 in 10.0 mi North 19.6 mph - N/A   Scattered Clouds
6:51 PM 68.0 °F 17.1 °F 14% 30.00 in 10.0 mi North 18.4 mph - N/A   Partly Cloudy
7:51 PM 64.9 °F 19.9 °F 18% 30.02 in 10.0 mi NNE 13.8 mph - N/A   Partly Cloudy
8:51 PM 63.0 °F 19.0 °F 18% 30.05 in 10.0 mi NNE 15.0 mph - N/A   Clear
9:51 PM 60.1 °F 23.0 °F 24% 30.08 in 10.0 mi NE 15.0 mph - N/A   Clear
10:51 PM 59.0 °F 24.1 °F 26% 30.12 in 10.0 mi NE 16.1 mph 24.2 mph N/A   Clear
11:51 PM 57.0 °F 27.0 °F 32% 30.13 in 10.0 mi NE 17.3 mph 25.3 mph N/A   Clear